GAOFEN 1-02 (43259 NORAD) Tracking and Keplerian Element Data

This shows tracking and keplerian element data for the satellite.

Feedback or suggestion? Click here.




ElementValue
Catalog43259
NameGAOFEN 1-02
Epoch Orbit438
Epoch Day119.80253972
Epoch Year2018
RAAN195.5111
Inclination98.0322
Eccentricity0.0005031
Argument of Perigee161.7334
Mean Anonmoly198.4055
Mean Motion14.76386062
Decay Rate5.5E-07
L11 43259U 18031A 18119.80253972 .00000055 00000-0 15274-4 0 9995
L22 43259 98.0322 195.5111 0005031 161.7334 198.4055 14.76386062 4386

Live tracking and technical data element details for GAOFEN 1-02 (NORAD 43259). GAOFEN 1-02 can be tracked NOW for your location showing map with azimuth and elevation plus other details from your city location.

Track the satellite on the map from your city or location and see movement details for azimuth, elevation, latitude, longitude, range, height, and movement on the map or in text.







IsCatalogInMostPopularTable: catalog: 43259, numindb: 59
Update: records affected: 1



GetName: 43259 GAOFEN 1-02

Hit Count: updated at: Tue, 13 Nov 2018 07:51:34 GMT